(32330) = 1990 UM4 = 1998 HR116 = 2000 QK64

Discovered at Socorro on 2000-08-28 by LINEAR.

Orbit

Orbit type: Main Belt

Note: WebGL enabled browser required.

epoch2024-03-31.0
epoch JD2460400.5
perihelion date2022-07-16.02489
perihelion JD2459776.52489
argument of perihelion (°)4.72657
ascending node (°)70.76981
inclination (°)9.76950
eccentricity0.1206701
perihelion distance (AU)2.6471733
Tisserand w.r.t. Jupiter3.2
ΔV w.r.t. Earth (km/sec)10.6
semimajor axis (AU)3.0104439
mean anomaly (°)117.74035
mean daily motion (°/day)0.18869400
aphelion distance (AU)3.374
period (years)5.22
P-vector [x]0.25156934
P-vector [y]0.88232072
P-vector [z]0.39777256
Q-vector [x]-0.95448593
Q-vector [y]0.15814069
Q-vector [z]0.25287966
absolute magnitude14.05
phase slope0.15
uncertainty0
referenceMPEC 2024-F74
observations used1930
oppositions21
arc length (days)12210
first opposition used1990
last opposition used2024
residual rms (arc-secs)0.64
perturbers coarse indicatorM-v
perturbers precise indicator003Ek
first observation date used1990-10-16.0
last observation date used2024-03-21.0
computer nameMPCLINUX
JD of orbit computation2456847.790933
perihelion JD uncertainty (days)9.5225E-05
argument of perihelion uncertainty (°)2.7586E-05
ascending node uncertainty (°)2.1732E-05
inclination uncertainty (°)4.7960E-06
eccentricity uncertainty 4.4370E-08
perihelion distance uncertainty (AU)1.3531E-07
Minimum Orbit Intersection Distances (in AU)
for orbit epoch: 2460400.5, reference: E2024-GB3
Mercury2.33993
Venus1.92662
Earth1.66274
Mars1.08446
Jupiter1.90348
Saturn6.39223
Uranus15.4074
Neptune27.0057

Observations

1917 total observations over interval: 1990 10 16.23750 – 2024 03 21.524856
These data are available for download (format description).

Date (UT) J2000 RA J2000 Dec Magn Location Ref
1990 10 16.23750 02 51 41.80 +07 04 31.0   809 – European Southern Observatory, La Silla MPC 17580
1990 10 16.25069 02 51 41.16 +07 04 29.0   809 – European Southern Observatory, La Silla MPC 17580
1990 10 16.26389 02 51 40.59 +07 04 27.6   809 – European Southern Observatory, La Silla MPC 17580
1990 10 24.25417 02 45 23.90 +06 51 31.0 18.8   809 – European Southern Observatory, La Silla MPC 18228
1990 10 24.26736 02 45 23.28 +06 51 30.7   809 – European Southern Observatory, La Silla MPC 18228
1990 10 24.28056 02 45 22.56 +06 51 28.3   809 – European Southern Observatory, La Silla MPC 18228
1990 10 26.66944 02 43 20.69 +06 48 00.2 17   385 – Nihondaira Observatory MPC 18174
1998 04 21.29978 14 21 02.87 -04 49 59.8 18.9   704 – Lincoln Laboratory ETS, New Mexico MPS 20738
1998 04 21.31993 14 21 01.88 -04 49 56.6 19.3   704 – Lincoln Laboratory ETS, New Mexico MPS 20738
1998 04 21.34017 14 21 00.89 -04 49 55.1 19.5   704 – Lincoln Laboratory ETS, New Mexico MPS 20738
1998 04 21.36033 14 20 59.88 -04 49 50.5 20.2   704 – Lincoln Laboratory ETS, New Mexico MPS 20738
1998 04 23.26422 14 19 26.74 -04 45 12.2 18.5   704 – Lincoln Laboratory ETS, New Mexico MPS 1404
1998 04 23.28315 14 19 25.81 -04 45 10.7 18.9   704 – Lincoln Laboratory ETS, New Mexico MPS 1404
1998 04 23.30193 14 19 24.90 -04 45 07.3 19.0   704 – Lincoln Laboratory ETS, New Mexico MPS 1404
1998 04 23.32073 14 19 23.99 -04 45 06.0 19.9   704 – Lincoln Laboratory ETS, New Mexico MPS 1404
1998 04 24.30644 14 18 35.50 -04 42 45.7 19.0   704 – Lincoln Laboratory ETS, New Mexico MPS 1404
1998 04 24.32545 14 18 34.46 -04 42 42.7 18.6   704 – Lincoln Laboratory ETS, New Mexico MPS 1404
1998 04 24.34438 14 18 33.50 -04 42 40.7 18.6   704 – Lincoln Laboratory ETS, New Mexico MPS 1404
1998 04 24.36347 14 18 32.58 -04 42 37.7 19.0   704 – Lincoln Laboratory ETS, New Mexico MPS 1404
1998 05 23.16753 13 57 25.49 -04 10 32.0 19.4   704 – Lincoln Laboratory ETS, New Mexico MPS 20738
1998 05 23.18726 13 57 24.62 -04 10 31.8 19.1   704 – Lincoln Laboratory ETS, New Mexico MPS 20738
1998 05 23.20708 13 57 24.02 -04 10 31.7 19.1   704 – Lincoln Laboratory ETS, New Mexico MPS 20738
1998 05 23.22681 13 57 23.22 -04 10 33.1 19.6   704 – Lincoln Laboratory ETS, New Mexico MPS 20738
1998 05 23.24679 13 57 22.42 -04 10 33.0 19.6   704 – Lincoln Laboratory ETS, New Mexico MPS 20738
2000 08 28.31353 00 18 55.23 -13 34 14.1 18.5   704 – Lincoln Laboratory ETS, New Mexico MPS 18158
2000 08 28.34061 00 18 54.35 -13 34 24.3 19.0   704 – Lincoln Laboratory ETS, New Mexico MPS 18158
2000 08 28.35420 00 18 53.94 -13 34 30.0 18.8   704 – Lincoln Laboratory ETS, New Mexico MPS 18158
2000 08 28.36771 00 18 53.44 -13 34 34.6 18.9   704 – Lincoln Laboratory ETS, New Mexico MPS 18158
2000 08 29.34598 00 18 20.90 -13 40 04.8 18.7   704 – Lincoln Laboratory ETS, New Mexico MPS 18158
2000 08 29.35940 00 18 20.40 -13 40 10.1 19.2   704 – Lincoln Laboratory ETS, New Mexico MPS 18158
2000 08 29.37284 00 18 19.92 -13 40 14.7 19.4   704 – Lincoln Laboratory ETS, New Mexico MPS 18158
2000 09 20.44113 00 02 28.58 -15 33 47.7 18.7   608 – Haleakala-AMOS MPS 20985
2000 09 20.45202 00 02 28.01 -15 33 50.5 18.4   608 – Haleakala-AMOS MPS 20985
2000 09 20.46250 00 02 27.48 -15 33 53.1 18.7   608 – Haleakala-AMOS MPS 20985
2000 09 29.19847 23 55 21.97 -16 04 06.5 17.7 R 699 – Lowell Observatory-LONEOS MPS 26656
2000 09 29.20774 23 55 21.46 -16 04 06.9   699 – Lowell Observatory-LONEOS MPS 26656
2000 09 29.21704 23 55 21.05 -16 04 08.6   699 – Lowell Observatory-LONEOS MPS 26656
2000 09 29.22633 23 55 20.55 -16 04 10.6   699 – Lowell Observatory-LONEOS MPS 26656
2000 10 01.17829 23 53 47.74 -16 09 09.1 17.9   704 – Lincoln Laboratory ETS, New Mexico MPS 20985
2000 10 01.19341 23 53 46.99 -16 09 10.6 18.1   704 – Lincoln Laboratory ETS, New Mexico MPS 20985
2000 10 01.20909 23 53 46.23 -16 09 13.2 17.9   704 – Lincoln Laboratory ETS, New Mexico MPS 20985
2000 10 01.22411 23 53 45.55 -16 09 15.2 17.8   704 – Lincoln Laboratory ETS, New Mexico MPS 20985
2000 10 01.23980 23 53 44.69 -16 09 17.8 18.4   704 – Lincoln Laboratory ETS, New Mexico MPS 20985
2000 10 02.19695 23 52 59.96 -16 11 28.4 17.7 R 699 – Lowell Observatory-LONEOS MPS 20985
2000 10 02.21637 23 52 58.98 -16 11 31.0   699 – Lowell Observatory-LONEOS MPS 20985
2000 10 02.23576 23 52 58.06 -16 11 33.1   699 – Lowell Observatory-LONEOS MPS 20985
2000 10 02.25511 23 52 57.11 -16 11 36.4   699 – Lowell Observatory-LONEOS MPS 20985
2000 10 27.15606 23 38 04.66 -16 04 49.3 18.1   704 – Lincoln Laboratory ETS, New Mexico MPS 20985
2000 10 27.17103 23 38 04.22 -16 04 47.0 18.2   704 – Lincoln Laboratory ETS, New Mexico MPS 20985
2000 10 27.18509 23 38 03.92 -16 04 44.2 17.7   704 – Lincoln Laboratory ETS, New Mexico MPS 20985
2000 10 27.19897 23 38 03.49 -16 04 41.4 18.6   704 – Lincoln Laboratory ETS, New Mexico MPS 20985
2000 10 27.21381 23 38 03.21 -16 04 40.3 18.0   704 – Lincoln Laboratory ETS, New Mexico MPS 20985
2001 10 13.41366 07 16 50.08 +24 53 08.3 19.0   704 – Lincoln Laboratory ETS, New Mexico MPS 37644
2001 10 13.42947 07 16 51.00 +24 53 10.2 19.2   704 – Lincoln Laboratory ETS, New Mexico MPS 37644
2001 10 13.44528 07 16 51.85 +24 53 11.7 19.5   704 – Lincoln Laboratory ETS, New Mexico MPS 37644
2001 10 13.46144 07 16 52.87 +24 53 13.2 19.5   704 – Lincoln Laboratory ETS, New Mexico MPS 37644
2001 10 13.47725 07 16 53.76 +24 53 15.1 19.9   704 – Lincoln Laboratory ETS, New Mexico MPS 37644
2001 10 27.45161 07 28 51.19 +25 23 51.3 18.6   704 – Lincoln Laboratory ETS, New Mexico MPS 39147
2001 10 27.46931 07 28 51.91 +25 23 54.1 18.7   704 – Lincoln Laboratory ETS, New Mexico MPS 39147
2001 10 27.48727 07 28 52.68 +25 23 57.5 18.5   704 – Lincoln Laboratory ETS, New Mexico MPS 39147
2001 11 10.52438 07 36 21.86 +26 09 21.0 18.7   644 – Palomar Mountain/NEAT MPS 40224
2001 11 10.53504 07 36 22.08 +26 09 23.3 18.5   644 – Palomar Mountain/NEAT MPS 40224
2001 11 10.54577 07 36 22.28 +26 09 25.7 18.5   644 – Palomar Mountain/NEAT MPS 40224
2001 11 11.41104 07 36 39.97 +26 12 47.7 18.0 R 699 – Lowell Observatory-LONEOS MPS 41804
2001 11 11.44356 07 36 40.56 +26 12 56.0   699 – Lowell Observatory-LONEOS MPS 41804
2001 11 11.47599 07 36 41.30 +26 13 04.1   699 – Lowell Observatory-LONEOS MPS 41804
2001 11 11.50847 07 36 41.71 +26 13 10.8   699 – Lowell Observatory-LONEOS MPS 41804
2001 11 12.43222 07 36 58.97 +26 16 50.9 18.6   704 – Lincoln Laboratory ETS, New Mexico MPS 41804
2001 11 12.44661 07 36 59.28 +26 16 54.7 20.1   704 – Lincoln Laboratory ETS, New Mexico MPS 41804
2001 11 12.46101 07 36 59.45 +26 16 56.3 20.5   704 – Lincoln Laboratory ETS, New Mexico MPS 41804
2001 11 12.47541 07 36 59.71 +26 17 02.3 19.2   704 – Lincoln Laboratory ETS, New Mexico MPS 41804
2001 11 12.48980 07 36 59.95 +26 17 05.8 18.9   704 – Lincoln Laboratory ETS, New Mexico MPS 41804
2001 11 20.38245 07 38 25.73 +26 51 54.6 18.2 R 699 – Lowell Observatory-LONEOS MPS 41804
2001 11 20.40468 07 38 25.68 +26 52 02.0   699 – Lowell Observatory-LONEOS MPS 41804
2001 11 20.42679 07 38 25.74 +26 52 08.0   699 – Lowell Observatory-LONEOS MPS 41804
2001 11 20.44888 07 38 25.76 +26 52 14.4   699 – Lowell Observatory-LONEOS MPS 41804
2001 11 21.375570 07 38 28.542 +26 56 42.56 18.68 V 645 – Apache Point-Sloan Digital Sky Survey MPS 80986
2001 11 21.379042 07 38 28.544 +26 56 43.61 19.32   645 – Apache Point-Sloan Digital Sky Survey MPS 80986
2001 11 24.36609 07 38 26.60 +27 11 39.8 18.1   704 – Lincoln Laboratory ETS, New Mexico MPS 46364
2001 11 24.38061 07 38 26.51 +27 11 44.3 18.5   704 – Lincoln Laboratory ETS, New Mexico MPS 46364
2001 11 24.39508 07 38 26.46 +27 11 49.2 19.1   704 – Lincoln Laboratory ETS, New Mexico MPS 46364
2001 11 24.40955 07 38 26.34 +27 11 54.1 18.6   704 – Lincoln Laboratory ETS, New Mexico MPS 46364
2001 11 24.42403 07 38 26.27 +27 11 57.5 18.8   704 – Lincoln Laboratory ETS, New Mexico MPS 46364
2001 11 27.48551 07 38 06.94 +27 28 04.7 18.2   644 – Palomar Mountain/NEAT MPS 46364
2001 11 27.49599 07 38 06.83 +27 28 08.2 18.5   644 – Palomar Mountain/NEAT MPS 46364
2001 11 27.51279 07 38 06.62 +27 28 13.5 18.5   644 – Palomar Mountain/NEAT MPS 46364
